This is the latest recevied weather packets stored in our database for station/object VK4SSH. If no packets are shown the sender has not sent any weather packets the latest 10 day(s).
| Time | Temp. | Humidity | Pressure | Rain* | Wind** | Luminosity | Snow |
|---|---|---|---|---|---|---|---|
| 1777952729 | 26.67° C | 70% | - | 0 mm | - | - | - |
| 1777952129 | 26.67° C | 66% | - | 0 mm | - | - | - |
| 1777951529 | 26.11° C | 67% | - | 0 mm | - | - | - |
| 1777950929 | 26.67° C | 68% | - | 0 mm | - | - | - |
| 1777950329 | 26.11° C | 67% | - | 0 mm | - | - | - |
| 1777949730 | 26.67° C | 67% | - | 0 mm | - | - | - |
| 1777949129 | 26.67° C | 65% | - | 0 mm | - | - | - |
| 1777948529 | 26.11° C | 64% | - | 0 mm | - | - | - |
| 1777947929 | 26.11° C | 67% | - | 0 mm | - | - | - |
| 1777947329 | 26.11° C | 69% | - | 0 mm | - | - | - |
| 1777946729 | 26.67° C | 68% | - | 0 mm | - | - | - |
| 1777946129 | 26.67° C | 66% | - | 0 mm | - | - | - |
| 1777945529 | 26.11° C | 66% | - | 0 mm | - | - | - |
| 1777944929 | 25.56° C | 70% | - | 0 mm | - | - | - |
| 1777944329 | 25.56° C | 71% | - | 0 mm | - | - | - |
| 1777943729 | 25.56° C | 71% | - | 0 mm | - | - | - |
| 1777943129 | 25.56° C | 71% | - | 0 mm | - | - | - |
| 1777942529 | 27.22° C | 69% | - | 0 mm | - | - | - |
| 1777941929 | 27.78° C | 65% | - | 0 mm | - | - | - |
| 1777941329 | 27.78° C | 64% | - | 0 mm | - | - | - |
| 1777940729 | 27.22° C | 65% | - | 0 mm | - | - | - |
| 1777940129 | 27.22° C | 69% | - | 0 mm | - | - | - |
| 1777939529 | 26.67° C | 68% | - | 0 mm | - | - | - |
| 1777938929 | 26.11° C | 72% | - | 0 mm | - | - | - |
| 1777938329 | 26.11° C | 74% | - | 0 mm | - | - | - |
* Rain latest hour (hover to see other rain measurements)
** Current wind speed in m/s (hover to see current wind gust speed)